Weather History for Montreal Mirabel, QC

Change the Weather History Date:

Tuesday, January 1, 2013

  Actual Average Record
Temperature  
Mean Temperature 14 °F -  
Max Temperature 28 °F 22 °F 41 °F (2005)
Min Temperature 1 °F 8 °F -16 °F (1998)
Degree Days  
Heating Degree Days 50    
Moisture  
Dew Point 2 °F    
Average Humidity 70    
Maximum Humidity 93    
Minimum Humidity 57    
Precipitation  
Precipitation 0.00 in - - ()
Sea Level Pressure  
Sea Level Pressure 29.87 in    
Wind  
Wind Speed 8 mph ()    
Max Wind Speed 16 mph    
Max Gust Speed 29 mph    
Visibility 9.3 miles    
Events Snow    
Averages and records for this station are not official NWS values.
T = Trace of Precipitation, MM = Missing Value Source: Averaged Metar Reports

Daily Weather History Graph

Daily Weather History Graph

Search for Another Location

Airport:

Trip Planner

Search our weather history database for the weather conditions in past years. The results will help you decide how hot, cold, wet, or windy it might be!

Date:

Astronomy

Jan. 01, 2013 Rise Set
Actual Time 7:36 AM EST 4:23 PM EST
Civil Twilight 7:02 AM EST 4:57 PM EST
Nautical Twilight 6:25 AM EST 5:34 PM EST
Astronomical Twilight 5:49 AM EST 6:10 PM EST
Moon 9:06 PM EST (1/1) 9:34 AM EST (1/1)
Length of Visible Light 9h 54m
Length of Day
8h 46m
Waning Gibbous, 83% of the Moon is Illuminated
Jan 1
Waning Gibbous
Jan 4
Last Quarter
Jan 11
New
Jan 18
First Quarter
Jan 26
Full

Hourly Weather History & Observations

Time (EST) Temp. Windchill Dew Point Humidity Pressure Visibility Wind Dir Wind Speed Gust Speed Precip Events Conditions
12:00 AM 28.4 °F 19.1 °F 26.6 °F 93% 29.64 in 10.0 mi WSW 10.4 mph 21.9 mph N/A Snow Light Snow
1:00 AM 26.6 °F 17.5 °F 24.8 °F 93% 29.65 in 6.0 mi NW 9.2 mph 20.7 mph N/A Snow Light Snow
1:09 AM 26.6 °F 14.3 °F 19.4 °F 74% 29.67 in 12.0 mi WNW 16.1 mph 28.8 mph N/A Snow Light Snow
2:00 AM 23.0 °F 11.7 °F 14.0 °F 68% 29.71 in 25.0 mi WNW 11.5 mph 20.7 mph N/A Snow Light Snow
3:00 AM 19.4 °F 8.6 °F 10.4 °F 68% 29.74 in 25.0 mi West 9.2 mph 21.9 mph N/A Snow Low Drifting Snow
4:00 AM 15.8 °F 5.1 °F 6.8 °F 68% 29.78 in 25.0 mi West 8.1 mph - N/A Snow Low Drifting Snow
5:00 AM 10.4 °F -6.6 °F 1.4 °F 67% 29.82 in 25.0 mi WNW 16.1 mph 25.3 mph N/A Snow Low Drifting Snow
6:00 AM 8.6 °F -2.6 °F -0.4 °F 67% 29.86 in 25.0 mi West 6.9 mph - N/A Snow Low Drifting Snow
7:00 AM 6.8 °F -6.9 °F -2.2 °F 67% 29.91 in 25.0 mi WNW 9.2 mph 17.3 mph N/A   Partly Cloudy
8:00 AM 5.0 °F -8.1 °F -2.2 °F 72% 29.92 in 45.0 mi West 8.1 mph - N/A   Partly Cloudy
9:00 AM 6.8 °F -3.5 °F -0.4 °F 72% 29.92 in 45.0 mi WSW 5.8 mph - N/A   Partly Cloudy
10:00 AM 8.6 °F -2.6 °F -2.2 °F 62% 29.93 in 45.0 mi WNW 6.9 mph - N/A   Partly Cloudy
11:00 AM 10.4 °F -0.4 °F -0.4 °F 62% 29.92 in 45.0 mi WNW 6.9 mph - N/A   Partly Cloudy
12:00 PM 10.4 °F -3.3 °F -2.2 °F 57% 29.92 in 45.0 mi WNW 10.4 mph 17.3 mph N/A   Partly Cloudy
1:00 PM 10.4 °F -2.4 °F -0.4 °F 62% 29.90 in 45.0 mi West 9.2 mph - N/A   Partly Cloudy
2:00 PM 12.2 °F 0.7 °F -0.4 °F 57% 29.90 in 45.0 mi West 8.1 mph 19.6 mph N/A   Partly Cloudy
3:00 PM 10.4 °F -4.1 °F -2.2 °F 57% 29.91 in 45.0 mi West 11.5 mph 18.4 mph N/A   Partly Cloudy
4:00 PM 8.6 °F -1.3 °F -4.0 °F 57% 29.91 in 45.0 mi WNW 5.8 mph - N/A   Partly Cloudy
5:00 PM 5.0 °F -5.6 °F -4.0 °F 66% 29.94 in 25.0 mi West 5.8 mph - N/A   Clear
6:00 PM 3.2 °F -4.2 °F -4.0 °F 72% 29.95 in 25.0 mi West 3.5 mph - N/A   Clear
7:00 PM 3.2 °F -7.8 °F -4.0 °F 72% 29.96 in 25.0 mi WSW 5.8 mph - N/A   Clear
8:00 PM 1.4 °F -9.9 °F -4.0 °F 78% 29.97 in 25.0 mi WSW 5.8 mph - N/A   Clear
9:00 PM 1.4 °F -9.9 °F -4.0 °F 78% 29.95 in 25.0 mi WSW 5.8 mph - N/A   Partly Cloudy
10:00 PM 1.4 °F -11.3 °F -4.0 °F 78% 29.95 in 25.0 mi WSW 6.9 mph - N/A   Mostly Cloudy
11:00 PM 1.4 °F -9.9 °F -4.0 °F 78% 29.94 in 25.0 mi WSW 5.8 mph - N/A   Mostly Cloudy